Tracking 22458 objects as of 2-Mar-2021
HD Live streaming from Space Station
objects crossing your sky now

COSMOS 2100

Track COSMOS 2100 now!
10-day predictions
COSMOS 2100 is classified as:


NORAD ID: 20804
Int'l Code: 1990-083A
Perigee: 965.0 km
Apogee: 1,017.3 km
Inclination: 82.9 °
Period: 104.8 minutes
Semi major axis: 7362 km
RCS: 2.1376 m2 (large)
Launch date: September 14, 1990
Source: Commonwealth of Independent States (former USSR) (CIS)
Launch site: PLESETSK MISSILE AND SPACE COMPLEX (PKMTR)
aabbcc
Your satellite tracking list
Your tracking list is empty




NASA's NSSDC Master Catalog

Two Line Element Set (TLE):
1 20804U 90083A   21061.51606325  .00000053  00000-0  40712-4 0  9998
2 20804  82.9427 158.7991 0035502 263.6927 106.5498 13.74342292528014
Source of the keplerian elements: AFSPC